| time (UTC) | temp F | wind direction | speed MPH | gust MPH | rain 1hr in | rain 24hr in | rain mn in | humidity % | barometer mb |
| 20260510175542 | 68 | 161 | 1.0 | 12.0 | 0.00 | 0.00 | 0.00 | 49 | 1019.7 |
| 20260510175043 | 68 | 62 | 5.0 | 12.0 | 0.00 | 0.00 | 0.00 | 47 | 1019.7 |
| 20260510174609 | 68 | 15 | 5.0 | 12.0 | 0.00 | 0.00 | 0.00 | 44 | 1019.8 |
| 20260510174044 | 68 | 42 | 1.0 | 9.0 | 0.00 | 0.00 | 0.00 | 47 | 1019.8 |
| 20260510173543 | 67 | 22 | 3.0 | 12.0 | 0.00 | 0.00 | 0.00 | 47 | 1019.6 |
| 20260510173055 | 67 | 16 | 3.0 | 12.0 | 0.00 | 0.00 | 0.00 | 43 | 1019.7 |
| 20260510172544 | 67 | 19 | 3.0 | 12.0 | 0.00 | 0.00 | 0.00 | 43 | 1019.9 |
| 20260510172043 | 67 | 342 | 3.0 | 10.0 | 0.00 | 0.00 | 0.00 | 46 | 1019.7 |
| 20260510171620 | 66 | 103 | 3.0 | 10.0 | 0.00 | 0.00 | 0.00 | 44 | 1019.7 |
| 20260510171043 | 66 | 17 | 2.0 | 10.0 | 0.00 | 0.00 | 0.00 | 45 | 1019.6 |
| 20260510170546 | 66 | 55 | 3.0 | 12.0 | 0.00 | 0.00 | 0.00 | 46 | 1019.6 |
| 20260510170056 | 66 | 360 | 3.0 | 17.0 | 0.00 | 0.00 | 0.00 | 44 | 1019.6 |
| 20260510165543 | 66 | 36 | 2.0 | 17.0 | 0.00 | 0.00 | 0.00 | 46 | 1019.5 |
| 20260510165042 | 65 | 58 | 3.0 | 11.0 | 0.00 | 0.00 | 0.00 | 46 | 1019.5 |
| 20260510164601 | 65 | 74 | 4.0 | 11.0 | 0.00 | 0.00 | 0.00 | 46 | 1019.7 |
| 20260510164045 | 65 | 33 | 3.0 | 12.0 | 0.00 | 0.00 | 0.00 | 48 | 1019.7 |
| 20260510163543 | 65 | 334 | 4.0 | 12.0 | 0.00 | 0.00 | 0.00 | 51 | 1019.7 |
| 20260510163059 | 65 | 54 | 2.0 | 12.0 | 0.00 | 0.00 | 0.00 | 53 | 1019.6 |
| 20260510162542 | 64 | 311 | 2.0 | 16.0 | 0.00 | 0.00 | 0.00 | 54 | 1019.5 |
| 20260510162042 | 64 | 334 | 4.0 | 18.0 | 0.00 | 0.00 | 0.00 | 53 | 1019.3 |
| 20260510161555 | 64 | 327 | 7.0 | 18.0 | 0.00 | 0.00 | 0.00 | 49 | 1019.3 |
| 20260510161043 | 64 | 43 | 5.0 | 14.0 | 0.00 | 0.00 | 0.00 | 51 | 1019.2 |
| 20260510160544 | 64 | 37 | 8.0 | 14.0 | 0.00 | 0.00 | 0.00 | 52 | 1019.3 |
| 20260510160054 | 65 | 28 | 2.0 | 11.0 | 0.00 | 0.00 | 0.00 | 55 | 1019.2 |
| 20260510155543 | 64 | 0 | 3.0 | 11.0 | 0.00 | 0.00 | 0.00 | 58 | 1019.2 |
| 20260510155043 | 64 | 31 | 2.0 | 10.0 | 0.00 | 0.00 | 0.00 | 54 | 1019.0 |
| 20260510154558 | 64 | 319 | 1.0 | 10.0 | 0.00 | 0.00 | 0.00 | 53 | 1019.1 |
| 20260510154042 | 64 | 17 | 3.0 | 11.0 | 0.00 | 0.00 | 0.00 | 58 | 1018.9 |
| 20260510153544 | 64 | 333 | 3.0 | 11.0 | 0.00 | 0.00 | 0.00 | 57 | 1018.9 |
| 20260510153058 | 64 | 75 | 2.0 | 11.0 | 0.00 | 0.00 | 0.00 | 58 | 1019.1 |
| 20260510152544 | 63 | 38 | 0.0 | 8.0 | 0.00 | 0.00 | 0.00 | 60 | 1019.1 |
| 20260510152042 | 63 | 27 | 2.0 | 9.0 | 0.00 | 0.00 | 0.00 | 60 | 1019.1 |
| 20260510151601 | 63 | 336 | 2.0 | 9.0 | 0.00 | 0.00 | 0.00 | 59 | 1019.2 |
| 20260510151044 | 64 | 208 | 1.0 | 11.0 | 0.00 | 0.00 | 0.00 | 61 | 1019.2 |
| 20260510150543 | 63 | 0 | 2.0 | 11.0 | 0.00 | 0.00 | 0.00 | 58 | 1019.2 |
| 20260510150057 | 63 | 348 | 4.0 | 12.0 | 0.00 | 0.00 | 0.00 | 57 | 1019.3 |
| 20260510145542 | 63 | 344 | 6.0 | 12.0 | 0.00 | 0.00 | 0.00 | 57 | 1019.4 |
| 20260510145042 | 63 | 24 | 3.0 | 12.0 | 0.00 | 0.00 | 0.00 | 59 | 1019.4 |
| 20260510144601 | 63 | 340 | 3.0 | 12.0 | 0.00 | 0.00 | 0.00 | 61 | 1019.3 |
| 20260510144043 | 63 | 37 | 2.0 | 10.0 | 0.00 | 0.00 | 0.00 | 60 | 1019.1 |
| 20260510143543 | 63 | 348 | 2.0 | 12.0 | 0.00 | 0.00 | 0.00 | 62 | 1019.1 |
| 20260510143057 | 63 | 0 | 3.0 | 12.0 | 0.00 | 0.00 | 0.00 | 64 | 1019.0 |
| 20260510142543 | 63 | 347 | 4.0 | 12.0 | 0.00 | 0.00 | 0.00 | 65 | 1018.9 |
| 20260510142043 | 63 | 53 | 1.0 | 8.0 | 0.00 | 0.00 | 0.00 | 65 | 1018.8 |
| 20260510141552 | 62 | 336 | 2.0 | 13.0 | 0.00 | 0.00 | 0.00 | 65 | 1018.7 |
| 20260510141045 | 62 | 360 | 2.0 | 13.0 | 0.00 | 0.00 | 0.00 | 66 | 1018.6 |
| 20260510140544 | 62 | 340 | 4.0 | 11.0 | 0.00 | 0.00 | 0.00 | 66 | 1018.5 |
| 20260510140053 | 62 | 29 | 4.0 | 11.0 | 0.00 | 0.00 | 0.00 | 65 | 1018.5 |
| 20260510135545 | 62 | 360 | 3.0 | 9.0 | 0.00 | 0.00 | 0.00 | 67 | 1018.3 |
| 20260510135045 | 62 | 61 | 2.0 | 13.0 | 0.00 | 0.00 | 0.00 | 69 | 1018.4 |
| 20260510134552 | 61 | 42 | 2.0 | 13.0 | 0.00 | 0.00 | 0.00 | 68 | 1018.3 |
| 20260510134044 | 61 | 66 | 3.0 | 13.0 | 0.00 | 0.00 | 0.00 | 71 | 1018.2 |
| 20260510133544 | 61 | 347 | 4.0 | 13.0 | 0.00 | 0.00 | 0.00 | 72 | 1018.1 |
| 20260510133053 | 61 | 345 | 3.0 | 11.0 | 0.00 | 0.00 | 0.00 | 73 | 1018.1 |
| 20260510132546 | 60 | 29 | 4.0 | 11.0 | 0.00 | 0.00 | 0.00 | 74 | 1018.1 |
| 20260510132044 | 60 | 0 | 3.0 | 9.0 | 0.00 | 0.00 | 0.00 | 75 | 1018.1 |
| 20260510131557 | 60 | 343 | 2.0 | 10.0 | 0.00 | 0.00 | 0.00 | 76 | 1017.9 |
| 20260510131049 | 60 | 38 | 1.0 | 11.0 | 0.00 | 0.00 | 0.00 | 76 | 1017.7 |
| 20260510130545 | 59 | 63 | 1.0 | 11.0 | 0.00 | 0.00 | 0.00 | 77 | 1017.5 |
| 20260510130054 | 59 | 9 | 3.0 | 11.0 | 0.00 | 0.00 | 0.00 | 77 | 1017.5 |
| 20260510125544 | 59 | 57 | 2.0 | 8.0 | 0.00 | 0.00 | 0.00 | 78 | 1017.4 |
| 20260510125045 | 59 | 319 | 1.0 | 8.0 | 0.00 | 0.00 | 0.00 | 78 | 1017.4 |
| 20260510124552 | 58 | 85 | 2.0 | 9.0 | 0.00 | 0.00 | 0.00 | 78 | 1017.2 |
| 20260510124045 | 58 | 17 | 1.0 | 9.0 | 0.00 | 0.00 | 0.00 | 79 | 1017.3 |
| 20260510123545 | 58 | 31 | 2.0 | 9.0 | 0.00 | 0.00 | 0.00 | 79 | 1017.2 |
| 20260510123057 | 58 | 57 | 2.0 | 6.0 | 0.00 | 0.00 | 0.00 | 79 | 1017.1 |
| 20260510122547 | 58 | 0 | 1.0 | 5.0 | 0.00 | 0.00 | 0.00 | 80 | 1016.9 |
| 20260510122044 | 57 | 53 | 1.0 | 5.0 | 0.00 | 0.00 | 0.00 | 81 | 1016.8 |
| 20260510121555 | 57 | 318 | 1.0 | 5.0 | 0.00 | 0.00 | 0.00 | 81 | 1016.8 |
| 20260510121045 | 57 | 323 | 1.0 | 4.0 | 0.00 | 0.00 | 0.00 | 82 | 1016.8 |
| 20260510120544 | 56 | 0 | 0.0 | 5.0 | 0.00 | 0.00 | 0.00 | 82 | 1016.8 |
| 20260510120054 | 56 | 0 | 0.0 | 5.0 | 0.00 | 0.00 | 0.00 | 82 | 1016.9 |
| 20260510115545 | 56 | 0 | 1.0 | 5.0 | 0.00 | 0.00 | 0.00 | 82 | 1016.7 |
| 20260510115044 | 56 | 0 | 0.0 | 3.0 | 0.00 | 0.00 | 0.00 | 82 | 1016.5 |
| 20260510114558 | 56 | 32 | 0.0 | 3.0 | 0.00 | 0.00 | 0.00 | 82 | 1016.4 |
| 20260510114044 | 56 | 0 | 0.0 | 3.0 | 0.00 | 0.00 | 0.00 | 82 | 1016.5 |
| 20260510113545 | 57 | 0 | 0.0 | 4.0 | 0.00 | 0.00 | 0.00 | 82 | 1016.4 |
| 20260510113058 | 57 | 0 | 1.0 | 4.0 | 0.00 | 0.00 | 0.00 | 81 | 1016.3 |
| 20260510112545 | 57 | 346 | 1.0 | 4.0 | 0.00 | 0.00 | 0.00 | 81 | 1016.2 |
| 20260510112045 | 57 | 341 | 1.0 | 4.0 | 0.00 | 0.00 | 0.00 | 82 | 1016.2 |
| 20260510111551 | 57 | 15 | 1.0 | 4.0 | 0.00 | 0.00 | 0.00 | 82 | 1016.2 |
| 20260510111045 | 57 | 0 | 0.0 | 2.0 | 0.00 | 0.00 | 0.00 | 82 | 1016.1 |
| 20260510110545 | 57 | 0 | 0.0 | 1.0 | 0.00 | 0.00 | 0.00 | 82 | 1015.9 |
| 20260510110057 | 57 | 0 | 0.0 | 1.0 | 0.00 | 0.00 | 0.00 | 82 | 1015.8 |
| 20260510105543 | 57 | 0 | 0.0 | 1.0 | 0.00 | 0.00 | 0.00 | 81 | 1015.8 |
| 20260510105043 | 58 | 0 | 0.0 | 0.0 | 0.00 | 0.00 | 0.00 | 80 | 1015.9 |
| 20260510104551 | 58 | 0 | 0.0 | 1.0 | 0.00 | 0.00 | 0.00 | 79 | 1015.9 |
| 20260510104043 | 58 | 0 | 0.0 | 4.0 | 0.00 | 0.00 | 0.00 | 79 | 1016.0 |
| 20260510103543 | 58 | 0 | 0.0 | 4.0 | 0.00 | 0.00 | 0.00 | 78 | 1015.8 |
| 20260510103054 | 59 | 40 | 0.0 | 4.0 | 0.00 | 0.00 | 0.00 | 77 | 1015.8 |
| 20260510102544 | 59 | 17 | 0.0 | 6.0 | 0.00 | 0.00 | 0.00 | 77 | 1015.6 |
| 20260510102044 | 59 | 59 | 1.0 | 6.0 | 0.00 | 0.00 | 0.00 | 76 | 1015.6 |
| 20260510101603 | 59 | 13 | 1.0 | 7.0 | 0.00 | 0.00 | 0.00 | 76 | 1015.6 |
| 20260510101043 | 59 | 13 | 1.0 | 7.0 | 0.00 | 0.00 | 0.00 | 76 | 1015.5 |
| 20260510100543 | 59 | 0 | 0.0 | 3.0 | 0.00 | 0.00 | 0.00 | 76 | 1015.4 |
| 20260510100054 | 58 | 22 | 0.0 | 0.0 | 0.00 | 0.00 | 0.00 | 77 | 1015.0 |
| 20260510095543 | 58 | 0 | 0.0 | 0.0 | 0.00 | 0.01 | 0.00 | 76 | 1014.9 |
| 20260510095042 | 58 | 0 | 0.0 | 0.0 | 0.00 | 0.01 | 0.00 | 76 | 1014.8 |
| 20260510094555 | 59 | 0 | 0.0 | 0.0 | 0.00 | 0.01 | 0.00 | 74 | 1014.9 |
| 20260510094047 | 60 | 0 | 0.0 | 1.0 | 0.00 | 0.01 | 0.00 | 73 | 1014.8 |
| 20260510093543 | 60 | 0 | 0.0 | 1.0 | 0.00 | 0.01 | 0.00 | 72 | 1014.6 |
| 20260510093052 | 60 | 0 | 0.0 | 1.0 | 0.00 | 0.01 | 0.00 | 71 | 1014.7 |
| 20260510092543 | 60 | 43 | 0.0 | 1.0 | 0.00 | 0.01 | 0.00 | 71 | 1014.6 |
| 20260510092042 | 60 | 0 | 0.0 | 1.0 | 0.00 | 0.01 | 0.00 | 71 | 1014.6 |
| 20260510091558 | 59 | 0 | 0.0 | 1.0 | 0.00 | 0.01 | 0.00 | 73 | 1014.7 |
| 20260510091042 | 58 | 0 | 0.0 | 1.0 | 0.00 | 0.01 | 0.00 | 75 | 1014.7 |
| 20260510090544 | 57 | 0 | 0.0 | 1.0 | 0.00 | 0.01 | 0.00 | 77 | 1014.6 |
| 20260510090114 | 56 | 0 | 0.0 | 1.0 | 0.00 | 0.01 | 0.00 | 80 | 1014.5 |
| 20260510085543 | 56 | 0 | 0.0 | 0.0 | 0.00 | 0.01 | 0.00 | 80 | 1014.4 |
| 20260510085043 | 56 | 0 | 0.0 | 0.0 | 0.00 | 0.01 | 0.00 | 80 | 1014.3 |
| 20260510084609 | 56 | 0 | 0.0 | 0.0 | 0.00 | 0.01 | 0.00 | 79 | 1014.1 |
| 20260510084044 | 56 | 0 | 0.0 | 0.0 | 0.00 | 0.01 | 0.00 | 79 | 1014.1 |
| 20260510083543 | 56 | 0 | 0.0 | 0.0 | 0.00 | 0.01 | 0.00 | 79 | 1014.1 |
| 20260510083054 | 56 | 0 | 0.0 | 1.0 | 0.00 | 0.01 | 0.00 | 80 | 1014.1 |
| 20260510082543 | 56 | 0 | 0.0 | 1.0 | 0.00 | 0.01 | 0.00 | 80 | 1014.0 |
| 20260510082043 | 56 | 0 | 0.0 | 1.0 | 0.00 | 0.01 | 0.00 | 81 | 1014.0 |
| 20260510081554 | 56 | 146 | 0.0 | 1.0 | 0.00 | 0.01 | 0.00 | 81 | 1014.1 |
| 20260510081043 | 56 | 0 | 0.0 | 0.0 | 0.00 | 0.01 | 0.00 | 81 | 1014.2 |
| 20260510080543 | 56 | 0 | 0.0 | 0.0 | 0.00 | 0.01 | 0.00 | 80 | 1014.3 |
| 20260510075543 | 57 | 0 | 0.0 | 0.0 | 0.00 | 0.01 | 0.00 | 79 | 1014.1 |
| 20260510075043 | 57 | 0 | 0.0 | 0.0 | 0.00 | 0.01 | 0.00 | 78 | 1014.1 |
| 20260510074556 | 58 | 0 | 0.0 | 0.0 | 0.00 | 0.01 | 0.00 | 77 | 1014.0 |
| 20260510074043 | 58 | 0 | 0.0 | 0.0 | 0.00 | 0.01 | 0.00 | 76 | 1014.0 |
| 20260510073543 | 58 | 0 | 0.0 | 0.0 | 0.00 | 0.01 | 0.00 | 73 | 1014.0 |
| 20260510073058 | 58 | 0 | 0.0 | 0.0 | 0.00 | 0.01 | 0.00 | 74 | 1013.9 |
| 20260510072543 | 58 | 0 | 0.0 | 0.0 | 0.00 | 0.01 | 0.00 | 74 | 1014.0 |
| 20260510072043 | 58 | 0 | 0.0 | 0.0 | 0.00 | 0.01 | 0.00 | 72 | 1014.0 |
| 20260510071553 | 58 | 0 | 0.0 | 0.0 | 0.00 | 0.01 | 0.00 | 72 | 1014.0 |
| 20260510071043 | 58 | 0 | 0.0 | 0.0 | 0.00 | 0.01 | 0.00 | 72 | 1014.0 |
| 20260510070543 | 58 | 0 | 0.0 | 0.0 | 0.00 | 0.01 | 0.00 | 72 | 1014.0 |
| 20260510065543 | 58 | 0 | 0.0 | 0.0 | 0.00 | 0.01 | 0.00 | 72 | 1013.9 |
| 20260510065043 | 58 | 0 | 0.0 | 0.0 | 0.00 | 0.01 | 0.00 | 71 | 1013.9 |
| 20260510064556 | 58 | 0 | 0.0 | 0.0 | 0.00 | 0.01 | 0.00 | 72 | 1014.0 |
| 20260510064044 | 58 | 0 | 0.0 | 0.0 | 0.00 | 0.01 | 0.00 | 72 | 1014.0 |
| 20260510063543 | 58 | 0 | 0.0 | 0.0 | 0.00 | 0.01 | 0.00 | 73 | 1014.1 |
| 20260510063053 | 58 | 0 | 0.0 | 0.0 | 0.00 | 0.01 | 0.00 | 73 | 1013.9 |
| 20260510062543 | 58 | 0 | 0.0 | 0.0 | 0.00 | 0.01 | 0.00 | 72 | 1014.0 |
| 20260510062042 | 58 | 0 | 0.0 | 1.0 | 0.00 | 0.01 | 0.00 | 72 | 1014.0 |
| 20260510061555 | 59 | 0 | 0.0 | 1.0 | 0.00 | 0.01 | 0.00 | 71 | 1014.1 |
| 20260510061044 | 59 | 0 | 0.0 | 0.0 | 0.00 | 0.01 | 0.00 | 70 | 1013.9 |
| 20260510060544 | 60 | 0 | 0.0 | 0.0 | 0.00 | 0.01 | 0.00 | 69 | 1014.0 |
| 20260510060100 | 60 | 0 | 0.0 | 0.0 | 0.00 | 0.01 | 0.00 | 67 | 1014.0 |
| 20260510055545 | 60 | 0 | 0.0 | 0.0 | 0.00 | 0.01 | 0.00 | 67 | 1014.0 |
| 20260510055043 | 60 | 0 | 0.0 | 0.0 | 0.00 | 0.01 | 0.00 | 66 | 1014.1 |
| 20260510054553 | 61 | 0 | 0.0 | 0.0 | 0.00 | 0.01 | 0.00 | 66 | 1014.0 |
| 20260510054044 | 61 | 0 | 0.0 | 0.0 | 0.00 | 0.01 | 0.00 | 65 | 1014.0 |
| 20260510053543 | 62 | 0 | 0.0 | 1.0 | 0.00 | 0.01 | 0.00 | 65 | 1014.1 |
| 20260510053055 | 61 | 321 | 0.0 | 4.0 | 0.00 | 0.01 | 0.00 | 65 | 1014.2 |
| 20260510052544 | 61 | 0 | 0.0 | 7.0 | 0.00 | 0.01 | 0.00 | 67 | 1014.1 |
| 20260510052046 | 60 | 308 | 3.0 | 7.0 | 0.00 | 0.01 | 0.00 | 69 | 1014.1 |
| 20260510051604 | 60 | 327 | 0.0 | 0.0 | 0.00 | 0.01 | 0.00 | 70 | 1013.8 |
| 20260510051044 | 60 | 0 | 0.0 | 0.0 | 0.00 | 0.01 | 0.00 | 69 | 1013.5 |
| 20260510050548 | 60 | 0 | 0.0 | 0.0 | 0.00 | 0.01 | 0.00 | 68 | 1013.4 |
| 20260510050105 | 59 | 0 | 0.0 | 0.0 | 0.00 | 0.01 | 0.00 | 69 | 1013.4 |
| 20260510045545 | 59 | 0 | 0.0 | 0.0 | 0.00 | 0.01 | 0.01 | 69 | 1013.4 |
| 20260510045045 | 59 | 0 | 0.0 | 0.0 | 0.00 | 0.01 | 0.01 | 68 | 1013.4 |
| 20260510044553 | 60 | 0 | 0.0 | 0.0 | 0.00 | 0.01 | 0.01 | 67 | 1013.4 |
| 20260510044041 | 60 | 0 | 0.0 | 0.0 | 0.00 | 0.01 | 0.01 | 68 | 1013.3 |
| 20260510043544 | 60 | 0 | 0.0 | 0.0 | 0.00 | 0.01 | 0.01 | 68 | 1013.3 |
| 20260510043058 | 60 | 0 | 0.0 | 0.0 | 0.00 | 0.01 | 0.01 | 68 | 1013.2 |
| 20260510042546 | 60 | 0 | 0.0 | 0.0 | 0.00 | 0.01 | 0.01 | 68 | 1013.2 |
| 20260510042045 | 61 | 0 | 0.0 | 0.0 | 0.00 | 0.01 | 0.01 | 67 | 1013.1 |
| 20260510041605 | 61 | 0 | 0.0 | 0.0 | 0.00 | 0.01 | 0.01 | 67 | 1013.0 |
| 20260510041045 | 61 | 0 | 0.0 | 0.0 | 0.00 | 0.01 | 0.01 | 67 | 1012.9 |
| 20260510040547 | 61 | 0 | 0.0 | 0.0 | 0.00 | 0.01 | 0.01 | 68 | 1012.9 |
| 20260510040103 | 60 | 0 | 0.0 | 0.0 | 0.00 | 0.01 | 0.01 | 69 | 1012.9 |
| 20260510035545 | 61 | 0 | 0.0 | 0.0 | 0.00 | 0.01 | 0.01 | 69 | 1012.9 |
| 20260510035045 | 61 | 0 | 0.0 | 0.0 | 0.00 | 0.01 | 0.01 | 67 | 1013.0 |
| 20260510034553 | 62 | 0 | 0.0 | 0.0 | 0.00 | 0.01 | 0.01 | 64 | 1013.0 |
| 20260510034045 | 62 | 0 | 0.0 | 0.0 | 0.00 | 0.01 | 0.01 | 64 | 1013.0 |
| 20260510033546 | 61 | 0 | 0.0 | 0.0 | 0.00 | 0.01 | 0.01 | 64 | 1012.9 |
| 20260510033059 | 61 | 0 | 0.0 | 0.0 | 0.00 | 0.01 | 0.01 | 65 | 1013.0 |
| 20260510032541 | 61 | 0 | 0.0 | 0.0 | 0.00 | 0.01 | 0.01 | 66 | 1012.8 |
| 20260510032042 | 62 | 0 | 0.0 | 0.0 | 0.00 | 0.01 | 0.01 | 66 | 1012.9 |
| 20260510031559 | 63 | 0 | 0.0 | 0.0 | 0.00 | 0.01 | 0.01 | 65 | 1012.8 |
| 20260510031044 | 64 | 0 | 0.0 | 0.0 | 0.00 | 0.01 | 0.01 | 63 | 1012.8 |
| 20260510030544 | 64 | 0 | 0.0 | 0.0 | 0.00 | 0.01 | 0.01 | 59 | 1012.9 |
| 20260510030058 | 64 | 0 | 0.0 | 0.0 | 0.00 | 0.01 | 0.01 | 59 | 1012.8 |
| 20260510025545 | 64 | 0 | 0.0 | 0.0 | 0.00 | 0.01 | 0.01 | 59 | 1012.7 |
| 20260510025140 | 64 | 0 | 0.0 | 1.0 | 0.00 | 0.01 | 0.01 | 59 | 1012.5 |
| 20260510024600 | 64 | 0 | 0.0 | 1.0 | 0.00 | 0.01 | 0.01 | 61 | 1012.5 |
| 20260510024045 | 65 | 0 | 0.0 | 0.0 | 0.00 | 0.01 | 0.01 | 60 | 1012.4 |
| 20260510023545 | 65 | 0 | 0.0 | 0.0 | 0.00 | 0.01 | 0.01 | 59 | 1012.2 |
| 20260510023057 | 66 | 0 | 0.0 | 0.0 | 0.00 | 0.01 | 0.01 | 58 | 1012.0 |
| 20260510022545 | 66 | 0 | 0.0 | 0.0 | 0.00 | 0.01 | 0.01 | 57 | 1011.8 |
| 20260510022045 | 66 | 0 | 0.0 | 0.0 | 0.00 | 0.01 | 0.01 | 57 | 1012.0 |
| 20260510021646 | 66 | 0 | 0.0 | 0.0 | 0.00 | 0.01 | 0.01 | 56 | 1011.8 |
| 20260510021044 | 66 | 0 | 0.0 | 0.0 | 0.00 | 0.01 | 0.01 | 55 | 1011.7 |
| 20260510020543 | 66 | 0 | 0.0 | 0.0 | 0.00 | 0.01 | 0.01 | 54 | 1011.6 |
| 20260510020059 | 67 | 0 | 0.0 | 0.0 | 0.00 | 0.01 | 0.01 | 54 | 1011.5 |
| 20260510015546 | 67 | 0 | 0.0 | 0.0 | 0.00 | 0.01 | 0.01 | 52 | 1011.4 |
| 20260510015043 | 67 | 0 | 0.0 | 0.0 | 0.00 | 0.01 | 0.01 | 52 | 1011.3 |
| 20260510014558 | 67 | 0 | 0.0 | 0.0 | 0.00 | 0.01 | 0.01 | 53 | 1011.3 |
| 20260510014044 | 67 | 0 | 0.0 | 0.0 | 0.00 | 0.01 | 0.01 | 52 | 1011.1 |
| 20260510013544 | 68 | 0 | 0.0 | 0.0 | 0.00 | 0.01 | 0.01 | 52 | 1011.0 |
| 20260510013101 | 68 | 0 | 0.0 | 0.0 | 0.00 | 0.01 | 0.01 | 53 | 1011.0 |
| 20260510012544 | 69 | 0 | 0.0 | 0.0 | 0.00 | 0.01 | 0.01 | 54 | 1010.9 |
| 20260510012045 | 69 | 0 | 0.0 | 0.0 | 0.00 | 0.01 | 0.01 | 52 | 1010.9 |
| 20260510011555 | 70 | 0 | 0.0 | 0.0 | 0.00 | 0.01 | 0.01 | 50 | 1010.7 |
| 20260510011045 | 70 | 0 | 0.0 | 0.0 | 0.00 | 0.01 | 0.01 | 49 | 1010.7 |
| 20260510010544 | 70 | 0 | 0.0 | 0.0 | 0.00 | 0.01 | 0.01 | 51 | 1010.7 |
| 20260510010100 | 71 | 0 | 0.0 | 0.0 | 0.00 | 0.01 | 0.01 | 50 | 1010.7 |
| 20260510005544 | 72 | 0 | 0.0 | 0.0 | 0.00 | 0.01 | 0.01 | 45 | 1010.6 |
| 20260510005045 | 72 | 0 | 0.0 | 0.0 | 0.00 | 0.01 | 0.01 | 45 | 1010.5 |
| 20260510004556 | 72 | 0 | 0.0 | 0.0 | 0.00 | 0.01 | 0.01 | 46 | 1010.4 |
| 20260510004044 | 73 | 0 | 0.0 | 0.0 | 0.00 | 0.01 | 0.01 | 46 | 1010.6 |
| 20260510003546 | 73 | 0 | 0.0 | 0.0 | 0.00 | 0.01 | 0.01 | 47 | 1010.4 |
| 20260510003054 | 73 | 0 | 0.0 | 0.0 | 0.00 | 0.01 | 0.01 | 44 | 1010.3 |
| 20260510002544 | 73 | 0 | 0.0 | 0.0 | 0.00 | 0.01 | 0.01 | 45 | 1010.4 |
| 20260510002044 | 73 | 0 | 0.0 | 0.0 | 0.00 | 0.01 | 0.01 | 47 | 1010.4 |
| 20260510001551 | 74 | 0 | 0.0 | 0.0 | 0.00 | 0.01 | 0.01 | 45 | 1010.4 |
| 20260510001044 | 74 | 0 | 0.0 | 0.0 | 0.00 | 0.01 | 0.01 | 46 | 1010.3 |
| 20260510000544 | 75 | 0 | 0.0 | 0.0 | 0.00 | 0.01 | 0.01 | 42 | 1010.5 |
| 20260510000052 | 75 | 0 | 0.0 | 0.0 | 0.00 | 0.01 | 0.01 | 42 | 1010.4 |
| 20260509235543 | 76 | 0 | 0.0 | 1.0 | 0.00 | 0.01 | 0.01 | 43 | 1010.3 |
| 20260509235044 | 77 | 0 | 0.0 | 1.0 | 0.00 | 0.01 | 0.01 | 41 | 1010.4 |
| 20260509234551 | 78 | 0 | 0.0 | 0.0 | 0.00 | 0.01 | 0.01 | 33 | 1010.4 |
| 20260509234044 | 78 | 0 | 0.0 | 1.0 | 0.00 | 0.01 | 0.01 | 33 | 1010.4 |
| 20260509233544 | 79 | 0 | 0.0 | 1.0 | 0.00 | 0.01 | 0.01 | 32 | 1010.4 |
| 20260509233054 | 79 | 0 | 0.0 | 1.0 | 0.00 | 0.01 | 0.01 | 34 | 1010.4 |
| 20260509232544 | 79 | 0 | 0.0 | 1.0 | 0.00 | 0.01 | 0.01 | 34 | 1010.4 |
| 20260509232044 | 79 | 236 | 0.0 | 3.0 | 0.00 | 0.01 | 0.01 | 34 | 1010.3 |
| 20260509231553 | 80 | 0 | 0.0 | 3.0 | 0.00 | 0.01 | 0.01 | 33 | 1010.4 |
| 20260509231043 | 80 | 246 | 0.0 | 2.0 | 0.00 | 0.01 | 0.01 | 34 | 1010.4 |
| 20260509230543 | 80 | 264 | 0.0 | 3.0 | 0.00 | 0.01 | 0.01 | 32 | 1010.3 |
| 20260509230059 | 79 | 152 | 1.0 | 8.0 | 0.00 | 0.01 | 0.01 | 31 | 1010.3 |
| 20260509225544 | 79 | 284 | 3.0 | 8.0 | 0.00 | 0.01 | 0.01 | 31 | 1010.4 |
| 20260509225043 | 79 | 250 | 2.0 | 7.0 | 0.00 | 0.01 | 0.01 | 34 | 1010.3 |
| 20260509224553 | 80 | 242 | 2.0 | 7.0 | 0.00 | 0.01 | 0.01 | 32 | 1010.3 |
| 20260509224043 | 80 | 276 | 2.0 | 4.0 | 0.00 | 0.01 | 0.01 | 33 | 1010.3 |
| 20260509223543 | 80 | 244 | 1.0 | 4.0 | 0.00 | 0.01 | 0.01 | 33 | 1010.4 |
| 20260509223057 | 80 | 236 | 2.0 | 5.0 | 0.00 | 0.01 | 0.01 | 32 | 1010.4 |
| 20260509222545 | 80 | 260 | 1.0 | 7.0 | 0.00 | 0.01 | 0.01 | 33 | 1010.4 |
| 20260509222043 | 80 | 240 | 3.0 | 8.0 | 0.00 | 0.01 | 0.01 | 36 | 1010.4 |
| 20260509221556 | 80 | 263 | 3.0 | 8.0 | 0.00 | 0.01 | 0.01 | 33 | 1010.3 |
| 20260509221042 | 80 | 274 | 2.0 | 8.0 | 0.00 | 0.01 | 0.01 | 32 | 1010.3 |
| 20260509220543 | 80 | 0 | 2.0 | 6.0 | 0.00 | 0.01 | 0.01 | 31 | 1010.3 |
| 20260509220054 | 80 | 0 | 0.0 | 8.0 | 0.00 | 0.01 | 0.01 | 33 | 1010.3 |
| 20260509215543 | 80 | 297 | 2.0 | 8.0 | 0.00 | 0.01 | 0.01 | 35 | 1010.2 |
| 20260509215043 | 80 | 337 | 2.0 | 6.0 | 0.00 | 0.01 | 0.01 | 34 | 1010.4 |
| 20260509214556 | 79 | 268 | 3.0 | 9.0 | 0.00 | 0.01 | 0.01 | 31 | 1010.3 |
| 20260509214043 | 79 | 263 | 5.0 | 12.0 | 0.00 | 0.01 | 0.01 | 31 | 1010.3 |
| 20260509213543 | 79 | 294 | 5.0 | 12.0 | 0.00 | 0.01 | 0.01 | 34 | 1010.2 |
| 20260509213108 | 79 | 267 | 2.0 | 11.0 | 0.00 | 0.01 | 0.01 | 34 | 1010.3 |
| 20260509212543 | 79 | 350 | 2.0 | 5.0 | 0.00 | 0.01 | 0.01 | 33 | 1010.3 |
| 20260509212043 | 80 | 336 | 2.0 | 5.0 | 0.00 | 0.01 | 0.01 | 34 | 1010.3 |
| 20260509211602 | 80 | 286 | 1.0 | 7.0 | 0.00 | 0.01 | 0.01 | 31 | 1010.4 |
| 20260509211043 | 79 | 304 | 3.0 | 10.0 | 0.00 | 0.01 | 0.01 | 32 | 1010.4 |
| 20260509210544 | 79 | 266 | 3.0 | 10.0 | 0.00 | 0.01 | 0.01 | 31 | 1010.6 |
| 20260509210053 | 80 | 280 | 3.0 | 10.0 | 0.00 | 0.01 | 0.01 | 32 | 1010.6 |
| 20260509205547 | 79 | 267 | 2.0 | 10.0 | 0.00 | 0.01 | 0.01 | 36 | 1010.6 |
| 20260509205044 | 79 | 312 | 2.0 | 10.0 | 0.00 | 0.01 | 0.01 | 31 | 1010.6 |
| 20260509204555 | 80 | 258 | 5.0 | 9.0 | 0.00 | 0.01 | 0.01 | 32 | 1010.6 |
| 20260509204044 | 80 | 302 | 0.0 | 6.0 | 0.00 | 0.01 | 0.01 | 31 | 1010.6 |
| 20260509203543 | 79 | 0 | 1.0 | 9.0 | 0.00 | 0.01 | 0.01 | 31 | 1010.7 |
| 20260509203054 | 79 | 311 | 3.0 | 9.0 | 0.00 | 0.01 | 0.01 | 32 | 1010.7 |
| 20260509202543 | 79 | 297 | 2.0 | 11.0 | 0.00 | 0.01 | 0.01 | 35 | 1010.9 |
| 20260509202043 | 79 | 296 | 4.0 | 12.0 | 0.00 | 0.01 | 0.01 | 31 | 1010.9 |
| 20260509201558 | 79 | 47 | 5.0 | 12.0 | 0.00 | 0.01 | 0.01 | 31 | 1011.0 |
| 20260509201043 | 79 | 295 | 5.0 | 12.0 | 0.00 | 0.01 | 0.01 | 32 | 1011.0 |
| 20260509200544 | 79 | 265 | 3.0 | 10.0 | 0.00 | 0.01 | 0.01 | 37 | 1011.1 |
| 20260509200055 | 79 | 255 | 2.0 | 9.0 | 0.00 | 0.01 | 0.01 | 35 | 1011.2 |
| 20260509195543 | 79 | 271 | 1.0 | 10.0 | 0.00 | 0.01 | 0.01 | 33 | 1011.3 |
| 20260509195045 | 78 | 283 | 3.0 | 14.0 | 0.00 | 0.01 | 0.01 | 32 | 1011.3 |
| 20260509194559 | 78 | 294 | 4.0 | 14.0 | 0.00 | 0.01 | 0.01 | 33 | 1011.3 |
| 20260509194043 | 78 | 268 | 8.0 | 14.0 | 0.00 | 0.01 | 0.01 | 32 | 1011.4 |
| 20260509193544 | 78 | 273 | 6.0 | 13.0 | 0.00 | 0.01 | 0.01 | 32 | 1011.3 |
| 20260509193056 | 78 | 269 | 5.0 | 11.0 | 0.00 | 0.01 | 0.01 | 34 | 1011.3 |
| 20260509192543 | 78 | 261 | 3.0 | 12.0 | 0.00 | 0.01 | 0.01 | 39 | 1011.2 |
| 20260509192043 | 78 | 284 | 6.0 | 12.0 | 0.00 | 0.01 | 0.01 | 37 | 1011.3 |
| 20260509191607 | 78 | 276 | 5.0 | 11.0 | 0.00 | 0.01 | 0.01 | 38 | 1011.3 |
| 20260509191042 | 78 | 254 | 7.0 | 11.0 | 0.00 | 0.01 | 0.01 | 37 | 1011.3 |
| 20260509190545 | 78 | 276 | 3.0 | 12.0 | 0.00 | 0.01 | 0.01 | 36 | 1011.4 |
| 20260509190056 | 78 | 281 | 3.0 | 12.0 | 0.00 | 0.01 | 0.01 | 38 | 1011.3 |
| 20260509185548 | 78 | 288 | 6.0 | 13.0 | 0.00 | 0.01 | 0.01 | 34 | 1011.5 |
| 20260509185048 | 78 | 279 | 6.0 | 13.0 | 0.00 | 0.01 | 0.01 | 35 | 1011.5 |
| 20260509184609 | 78 | 271 | 4.0 | 14.0 | 0.00 | 0.01 | 0.01 | 30 | 1011.4 |
| 20260509184048 | 78 | 308 | 1.0 | 14.0 | 0.00 | 0.01 | 0.01 | 35 | 1011.3 |
| 20260509183545 | 78 | 264 | 2.0 | 11.0 | 0.00 | 0.01 | 0.01 | 37 | 1011.3 |
| 20260509183101 | 78 | 303 | 3.0 | 9.0 | 0.00 | 0.01 | 0.01 | 32 | 1011.3 |
| 20260509182547 | 78 | 269 | 4.0 | 8.0 | 0.00 | 0.01 | 0.01 | 38 | 1011.3 |
| 20260509182048 | 77 | 287 | 3.0 | 8.0 | 0.00 | 0.01 | 0.01 | 36 | 1011.1 |
| 20260509181605 | 77 | 330 | 2.0 | 10.0 | 0.00 | 0.01 | 0.01 | 39 | 1011.4 |
| 20260509181047 | 77 | 0 | 5.0 | 10.0 | 0.00 | 0.01 | 0.01 | 33 | 1011.3 |
| 20260509180543 | 77 | 308 | 2.0 | 15.0 | 0.00 | 0.01 | 0.01 | 41 | 1011.4 |
| 20260509180112 | 77 | 298 | 4.0 | 15.0 | 0.00 | 0.01 | 0.01 | 36 | 1011.5 |